This is the latest recevied weather packets stored in our database for station/object OE-11373. If no packets are shown the sender has not sent any weather packets the latest 10 day(s).
| Time | Temp. | Humidity | Pressure | Rain* | Wind** | Luminosity | Snow |
|---|---|---|---|---|---|---|---|
| 1788034286 | 16.67° C | 58% | 852.5 hPa | - | - | - | - |
| 1788033913 | 16.67° C | 58% | 852.5 hPa | - | - | - | - |
| 1788033313 | 16.67° C | 58% | 852.4 hPa | - | - | - | - |
| 1788032486 | 16.67° C | 58% | 852.4 hPa | - | - | - | - |
| 1788032113 | 17.22° C | 58% | 852.5 hPa | - | - | - | - |
| 1788031513 | 16.67° C | 58% | 852.5 hPa | - | - | - | - |
| 1788030686 | 16.67° C | 58% | 852.4 hPa | - | - | - | - |
| 1788030313 | 17.22° C | 59% | 852.4 hPa | - | - | - | - |
| 1788029713 | 17.22° C | 57% | 852.5 hPa | - | - | - | - |
| 1788028886 | 17.22° C | 57% | 852.3 hPa | - | - | - | - |
| 1788028513 | 17.22° C | 57% | 852.3 hPa | - | - | - | - |
| 1788027913 | 17.22° C | 58% | 852.3 hPa | - | - | - | - |
| 1788027086 | 17.22° C | 56% | 852.2 hPa | - | - | - | - |
| 1788026713 | 17.22° C | 57% | 852.2 hPa | - | - | - | - |
| 1788026113 | 17.22° C | 57% | 852.2 hPa | - | - | - | - |
| 1788025286 | 16.67° C | 58% | 852.2 hPa | - | - | - | - |
| 1788024913 | 16.67° C | 58% | 852.2 hPa | - | - | - | - |
| 1788024313 | 16.67° C | 59% | 852.3 hPa | - | - | - | - |
| 1788023486 | 16.67° C | 59% | 852.4 hPa | - | - | - | - |
| 1788023112 | 17.22° C | 58% | 852.5 hPa | - | - | - | - |
| 1788022513 | 17.78° C | 57% | 852.5 hPa | - | - | - | - |
| 1788021686 | 17.78° C | 54% | 852.6 hPa | - | - | - | - |
| 1788021313 | 18.33° C | 58% | 852.6 hPa | - | - | - | - |
| 1788020712 | 17.78° C | 56% | 852.6 hPa | - | - | - | - |
| 1788019886 | 17.78° C | 54% | 852.6 hPa | - | - | - | - |
* Rain since midnight (hover to see other rain measurements)
** Current wind speed in m/s (hover to see current wind gust speed)